FW1358 Weather Reports


time (UTC)temp
C
wind
direction
speed
KPH
gust
KPH
rain 1hr
cm
rain 24hr
cm
rain mn
cm
humidity
%
barometer
mb
20260505200803 25 5 0.0 1.6 0.00 0.00 0.00 47 1010.1
20260505200303 25 138 0.0 1.6 0.00 0.00 0.00 45 1010.2
20260505193802 23 122 0.0 3.2 0.00 0.00 0.00 51 1011.0
20260505193303 23 234 0.0 1.6 0.00 0.00 0.00 51 1011.1
20260505192803 23 234 0.0 1.6 0.00 0.00 0.00 51 1011.1
20260505191802 23 340 0.0 0.0 0.00 0.00 0.00 53 1011.4
20260505191303 22 340 0.0 1.6 0.00 0.00 0.00 55 1011.5
20260505185305 21 5 0.0 4.8 0.00 0.00 0.00 54 1011.4
20260505184803 21 119 0.0 4.8 0.00 0.00 0.00 56 1011.3
20260505184303 21 83 0.0 0.0 0.00 0.00 0.00 58 1011.3
20260505183303 21 83 0.0 3.2 0.00 0.00 0.00 58 1011.5
20260505182803 21 83 0.0 3.2 0.00 0.00 0.00 56 1011.7
20260505182305 21 340 0.0 4.8 0.00 0.00 0.00 56 1012.1
20260505181303 21 124 0.0 0.0 0.00 0.00 0.00 58 1012.2
20260505180302 21 124 0.0 1.6 0.00 0.00 0.00 57 1012.5
20260505175803 21 49 0.0 1.6 0.00 0.00 0.00 58 1012.4
20260505172803 21 25 0.0 1.6 0.00 0.00 0.00 58 1013.5
20260505172305 21 333 0.0 0.0 0.00 0.00 0.00 58 1013.5
20260505171803 21 333 0.0 0.0 0.00 0.00 0.00 56 1013.6
20260505165306 22 215 0.0 1.6 0.00 0.00 0.00 56 1013.8
20260505164303 22 27 0.0 4.8 0.00 0.00 0.00 56 1013.8
20260505162803 22 269 0.0 3.2 0.00 0.00 0.00 56 1014.0
20260505162305 22 254 0.0 4.8 0.00 0.00 0.00 57 1014.1
20260505161303 22 308 0.0 0.0 0.00 0.00 0.00 57 1014.2
20260505160802 22 308 0.0 0.0 0.00 0.00 0.00 57 1014.2
20260505151803 21 311 0.0 3.2 0.00 0.00 0.00 58 1013.8
20260505130303 17 275 0.0 1.6 0.00 0.00 0.00 66 1013.2
20260505124803 17 194 0.0 0.0 0.00 0.00 0.00 67 1013.3
20260505124303 16 194 0.0 0.0 0.00 0.00 0.00 68 1013.3
20260505123802 16 194 0.0 0.0 0.00 0.00 0.00 67 1013.5
20260505123303 16 194 0.0 0.0 0.00 0.00 0.00 67 1013.6
20260505122305 16 194 0.0 0.0 0.00 0.00 0.00 68 1013.6
20260505121802 16 194 0.0 0.0 0.00 0.00 0.00 67 1013.5
20260505121303 16 194 0.0 0.0 0.00 0.00 0.00 68 1013.5
20260505120803 16 194 0.0 0.0 0.00 0.00 0.00 68 1013.4
20260505120303 16 194 0.0 0.0 0.00 0.00 0.00 68 1013.2
20260505115803 16 194 0.0 0.0 0.00 0.00 0.00 68 1013.1
20260505115305 15 194 0.0 0.0 0.00 0.00 0.00 68 1013.0
20260505114302 15 194 0.0 0.0 0.00 0.00 0.00 68 1012.8
20260505112304 15 194 0.0 0.0 0.00 0.00 0.00 67 1012.5
20260505111303 15 194 0.0 0.0 0.00 0.00 0.00 67 1012.4
20260505110803 15 194 0.0 0.0 0.00 0.00 0.00 66 1012.5
20260505110303 15 194 0.0 0.0 0.00 0.00 0.00 67 1012.4
20260505101803 15 221 0.0 0.0 0.00 0.00 0.00 67 1011.9
20260505101303 15 221 0.0 0.0 0.00 0.00 0.00 67 1011.8
20260505095304 15 221 0.0 0.0 0.00 0.00 0.00 67 1011.8
20260505094303 15 221 0.0 0.0 0.00 0.00 0.00 66 1011.7
20260505092802 15 221 0.0 0.0 0.00 0.00 0.00 66 1011.8
20260505090803 16 221 0.0 0.0 0.00 0.00 0.00 66 1011.8
20260505085304 16 221 0.0 0.0 0.00 0.00 0.00 65 1011.8
20260505083803 16 221 0.0 0.0 0.00 0.00 0.00 65 1011.7
20260505083302 16 221 0.0 0.0 0.00 0.00 0.00 64 1011.6
20260505082304 16 221 0.0 0.0 0.00 0.00 0.00 64 1011.5
20260505080803 16 221 0.0 0.0 0.00 0.00 0.00 63 1011.4
20260505080303 16 221 0.0 0.0 0.00 0.00 0.00 63 1011.4
20260505073803 16 221 0.0 0.0 0.00 0.00 0.00 62 1011.5
20260505073303 16 221 0.0 0.0 0.00 0.00 0.00 62 1011.5
20260505072803 16 221 0.0 0.0 0.00 0.00 0.00 62 1011.7
20260505071303 17 221 0.0 0.0 0.00 0.00 0.00 61 1011.8
20260505070803 17 221 0.0 0.0 0.00 0.00 0.00 61 1011.9
20260505065304 17 221 0.0 0.0 0.00 0.00 0.00 60 1012.1
20260505061803 17 221 0.0 0.0 0.00 0.00 0.00 59 1012.3
20260505061302 17 221 0.0 0.0 0.00 0.00 0.00 59 1012.2
20260505055304 18 221 0.0 0.0 0.00 0.00 0.00 58 1012.4
20260505054803 18 221 0.0 0.0 0.00 0.00 0.00 58 1012.4
20260505054303 18 221 0.0 0.0 0.00 0.00 0.00 58 1012.4
20260505053803 18 221 0.0 0.0 0.00 0.00 0.00 57 1012.3
20260505052803 18 221 0.0 0.0 0.00 0.00 0.00 57 1012.2
20260505052304 18 221 0.0 0.0 0.00 0.00 0.00 57 1012.2
20260505051803 18 221 0.0 0.0 0.00 0.00 0.00 57 1012.2
20260505040803 19 221 0.0 0.0 0.00 0.00 0.00 54 1011.8
20260505035304 19 221 0.0 0.0 0.00 0.00 0.00 54 1011.8
20260505034803 19 221 0.0 0.0 0.00 0.00 0.00 54 1011.8
20260505032803 20 221 0.0 1.6 0.00 0.00 0.00 53 1011.8
20260505032304 20 221 0.0 1.6 0.00 0.00 0.00 53 1011.8
20260505031803 20 41 0.0 0.0 0.00 0.00 0.00 54 1011.8
20260505030303 20 41 0.0 1.6 0.00 0.00 0.00 53 1011.9
20260505025803 20 41 0.0 1.6 0.00 0.00 0.00 53 1011.9
20260505025304 20 245 0.0 0.0 0.00 0.00 0.00 53 1011.9
20260505024303 20 245 0.0 1.6 0.00 0.00 0.00 54 1011.8
20260505022304 20 300 0.0 0.0 0.00 0.00 0.00 53 1011.8
20260505021803 20 300 0.0 0.0 0.00 0.00 0.00 52 1011.8
20260505021303 20 300 0.0 0.0 0.00 0.00 0.00 52 1011.8
20260505020803 21 300 0.0 0.0 0.00 0.00 0.00 52 1011.8
20260505020303 21 300 0.0 0.0 0.00 0.00 0.00 52 1011.7
20260505015803 21 300 0.0 0.0 0.00 0.00 0.00 51 1011.6
20260505015304 21 300 0.0 0.0 0.00 0.00 0.00 51 1011.7
20260505014303 21 300 0.0 0.0 0.00 0.00 0.00 51 1011.6
20260505012803 22 300 0.0 0.0 0.00 0.00 0.00 51 1011.6
20260505012304 22 300 0.0 0.0 0.00 0.00 0.00 50 1011.6
20260505010803 22 300 0.0 0.0 0.00 0.00 0.00 49 1011.6
20260505004303 23 300 0.0 0.0 0.00 0.00 0.00 47 1011.5
20260505002803 23 300 0.0 0.0 0.00 0.00 0.00 45 1011.4
20260505002304 23 300 0.0 0.0 0.00 0.00 0.00 45 1011.4
20260505001803 24 300 0.0 1.6 0.00 0.00 0.00 44 1011.3
20260505001303 24 300 0.0 1.6 0.00 0.00 0.00 44 1011.3
20260505000803 24 139 0.0 1.6 0.00 0.00 0.00 43 1011.4
20260504235304 24 138 0.0 0.0 0.00 0.00 0.00 42 1011.4
20260504234802 25 138 0.0 1.6 0.00 0.00 0.00 41 1011.4
20260504232803 25 284 0.0 4.8 0.00 0.00 0.00 40 1011.5
20260504230803 25 26 0.0 4.8 0.00 0.00 0.00 42 1011.4
20260504224803 25 338 0.0 1.6 0.00 0.00 0.00 41 1011.4
20260504224303 26 62 0.0 3.2 0.00 0.00 0.00 40 1011.5
20260504223803 26 20 0.0 8.0 0.00 0.00 0.00 40 1011.6
20260504222305 26 350 0.0 11.3 0.00 0.00 0.00 38 1011.5
20260504215803 27 224 0.0 1.6 0.00 0.00 0.00 40 1011.4
20260504214803 27 118 0.0 4.8 0.00 0.00 0.00 41 1011.4
20260504213803 27 35 0.0 9.7 0.00 0.00 0.00 38 1011.3
20260504213303 27 345 0.0 9.7 0.00 0.00 0.00 39 1011.4
20260504212803 27 34 0.0 4.8 0.00 0.00 0.00 38 1011.3
20260504211804 27 191 0.0 8.0 0.00 0.00 0.00 37 1011.4
20260504210803 27 315 0.0 9.7 0.00 0.00 0.00 36 1011.4
20260504205803 27 232 0.0 9.7 0.00 0.00 0.00 40 1011.5
20260504205304 27 11 0.0 9.7 0.00 0.00 0.00 39 1011.6
20260504204803 27 76 1.6 9.7 0.00 0.00 0.00 38 1011.6
20260504204303 27 4 0.0 19.3 0.00 0.00 0.00 38 1011.7
20260504203802 27 45 0.0 19.3 0.00 0.00 0.00 39 1011.7
20260504202304 27 354 1.6 12.9 0.00 0.00 0.00 38 1011.8